Location: *
(2.5500°S, 65.9667°W)
Time: 16:17:32
(UTC+00:00)

A-11 Canister half - Pass Details

Date: 19 April 2024
Orbit: 1525 x 1683 km, 47.3° (Epoch: 21 May)

Event Time Altitude Azimuth Distance (km) Brightness Sun altitude
Exits shadow 06:46:47 30° 69° (ENE) 2,585 10.3 -53.3°
Drops below altitude 10° 06:51:22 10° 55° (NE) 3,865 11.5 -52.2°
Sets 06:54:38 0° 51° (NE) 4,869 12.2 -51.4°
